Terminal Aerodrome Forecast
Issued by NWS Aberdeen, SD

Home | Current Version | Previous Version | Text Only | Print | Product List | Glossary On
Versions: 1 2 3 4 5 6 7 8 9 10 11 12 13 14 15 16 17 18 19 20 21 22 23 24 25 26 27 28 29 30 31 32 33 34 35 36 37 38 39
000
FTAK31 PAFA 242335
TAFABR
TAF
PABR 242335Z 2500/2524 05015KT 4SM BLSN SCT025 BKN110
     FM250300 05020KT 4SM -SN BR SCT015 OVC050
     FM251500 06015KT 2SM -SN BR SCT015 BKN050
     FM252000 07020KT 5SM BLSN BR BKN025 OVC050=

USA.gov is the U.S. government's official web portal to all federal, state and local government web resources and services.